#timestamp,LO_Frequency,Hit,StdDev 
1651078815.3,286047005.2,N
1651078835.1,286047005.6,N
1651078855.8,286047003.4,N
1651078875.7,286047005.5,N
1651078895.5,286047007.5,Y
1651078915.4,286047004.0,P
1651078935.2,286047004.7,P
1651078955.0,286047006.7,P
1651078955.9,286047006.7,Y
1651078975.8,286047000.2,P
1651078995.6,286047002.4,N
1651079015.5,286047001.9,N
1651079035.3,286047001.5,N
1651079055.1,286047003.4,N
1651079075.9,286047003.5,N
1651079095.7,286047003.5,N
1651079115.5,286047006.7,Y
1651079135.4,286047005.2,P
1651079155.2,286047004.1,P
1651079175.1,286047005.4,P
1651079176.0,286047005.4,Y
1651079195.8,286047001.6,P
1651079215.6,286047002.6,N
1651079235.5,286047001.8,N
1651079255.3,286046999.8,N
1651079275.1,286047000.3,N
1651079295.9,286046999.3,N
1651079315.7,286046996.5,N
1651079335.6,286046997.9,N
1651079355.4,286046994.0,N
1651079375.2,286046991.9,N
1651079395.1,286046990.2,N
1651079396.0,286046990.2,N
1651079415.8,286046993.0,N
1651079435.6,286046989.2,N
1651079455.5,286046991.6,N
1651079475.3,286046991.5,N
1651079495.2,286046988.7,N
1651079515.9,286046987.4,N
1651079535.7,286046987.2,N
1651079555.6,286046985.4,N
1651079575.4,286046986.2,N
1651079595.2,286046984.4,N
1651079615.1,286046986.2,N
1651079616.0,286046986.2,N
1651079635.8,286046986.7,N
1651079655.7,286046984.1,N
1651079675.5,286046984.7,N
1651079695.3,286046985.5,N
1651079715.2,286046987.3,N
1651079735.0,286046991.6,N
1651079735.9,286046991.6,N
1651079755.7,286046987.6,N
1651079775.6,286046987.2,N
1651079795.4,286046987.1,N
1651079815.3,286046988.7,N
1651079835.1,286046989.9,N
1651079836.0,286046989.9,N
1651079855.8,286046989.3,Y
1651079875.7,286046998.5,P
1651079895.5,286047000.2,N
1651079915.4,286047000.9,N
1651079935.2,286047001.9,N
1651079955.0,286047002.8,N
1651079955.9,286047002.8,N
1651079975.8,286047002.7,N
1651079995.6,286047002.5,N
1651080015.4,286047001.6,N
1651080035.3,286047003.6,N
1651080055.1,286047001.8,N
1651080075.9,286047000.3,N
1651080095.7,286047001.8,N
1651080115.5,286047005.9,N
1651080135.4,286047004.8,N
1651080155.2,286047006.5,N
1651080175.0,286047009.1,N
1651080175.9,286047009.1,N
1651080195.8,286047009.2,N
1651080215.6,286047009.1,N
1651080235.5,286047009.0,N
1651080255.3,286047010.8,N
1651080275.1,286047008.6,N
1651080295.9,286047008.1,N
1651080315.7,286047008.5,N
1651080335.6,286047003.4,N
1651080355.4,286047003.3,N
1651080375.2,286047003.5,N
1651080395.1,286047001.3,N
1651080396.0,286047001.3,N
1651080415.8,286046999.8,N
1651080435.6,286047000.3,N
1651080455.5,286047007.3,N
1651080475.3,286047003.9,N
1651080495.2,286047002.6,N
1651080515.9,286047000.6,N
1651080535.7,286046999.7,N
1651080555.6,286047002.0,N
1651080575.4,286047005.6,N
1651080595.2,286047003.0,N
1651080615.1,286047001.3,N
1651080616.0,286047001.3,N
1651080635.8,286046999.9,N
1651080655.7,286046999.2,N
1651080675.5,286046995.4,N
1651080695.3,286046996.5,N
1651080715.2,286047000.8,N
1651080735.0,286047002.1,N
1651080735.9,286047002.1,N
1651080755.7,286047006.0,N
1651080775.6,286047006.4,N
1651080795.4,286047008.6,N
1651080815.3,286047010.3,Y
1651080835.1,286047010.8,P
1651080855.8,286047010.5,N
1651080875.7,286047009.2,N
1651080895.5,286047004.6,N
1651080915.3,286047007.0,N
1651080935.2,286047007.0,N
1651080955.0,286047005.0,N
1651080955.9,286047005.0,N
1651080975.8,286047005.5,N
1651080995.6,286047003.1,N
1651081015.4,286047003.0,N
1651081035.3,286047003.6,N
1651081055.1,286046999.8,N
1651081075.9,286046998.3,N
1651081095.7,286046999.2,N
1651081115.5,286046996.9,N
1651081135.4,286046997.9,N
1651081155.2,286046994.9,N
1651081175.0,286046993.9,N
1651081175.9,286046993.9,N
1651081195.8,286046994.2,N
1651081215.6,286046994.5,N
1651081235.5,286046994.6,N
1651081255.3,286046994.1,N
1651081275.1,286046994.6,N
1651081295.9,286046993.7,N
1651081315.7,286046994.1,N
1651081335.5,286046993.3,N
1651081355.4,286046996.3,N
1651081375.2,286046993.3,N
1651081395.1,286046993.4,N
1651081396.0,286046993.4,N
1651081415.8,286046995.6,N
1651081435.6,286046995.9,N
1651081455.5,286046994.2,N
1651081475.3,286046993.9,N
1651081495.1,286046994.1,N
1651081515.9,286046994.1,N
1651081535.7,286046992.1,N
1651081555.6,286046992.8,N
1651081575.4,286046993.0,N
1651081595.2,286046993.5,N
1651081615.1,286046993.7,Y
1651081616.0,286046993.7,P
1651081635.8,286047001.1,N
1651081655.7,286047000.4,N
1651081675.5,286047000.5,N
1651081695.3,286047001.0,N
1651081715.2,286047002.6,N
1651081735.0,286047002.7,N
1651081735.9,286047002.7,N
1651081755.7,286047001.0,N
1651081775.6,286047000.6,N
1651081795.4,286047000.6,N
1651081815.3,286047000.8,N
1651081835.1,286047001.2,N
1651081836.0,286047001.2,N
1651081855.8,286047000.3,N
1651081875.7,286047002.8,N
1651081895.5,286046999.9,N
1651081915.3,286047000.9,N
1651081935.2,286047000.9,N
1651081955.0,286046998.5,N
1651081955.9,286046998.5,N
1651081975.8,286046998.5,N
1651081995.6,286046999.4,N
1651082015.4,286046998.5,N
1651082035.3,286046996.5,N
1651082055.1,286046996.6,N
1651082075.8,286046999.2,N
1651082095.7,286046999.4,N
1651082145.5,286046999.9,E
1651082155.5,286046998.4,N
1651082175.3,286046998.2,P
1651082195.1,286046998.1,P
1651082215.9,286046999.4,Y
1651082235.7,286047000.3,P
1651082255.5,286046999.8,N
1651082275.4,286047001.1,N
1651082295.2,286046998.2,N
1651082315.1,286046999.6,N
1651082316.0,286046999.6,N
1651082335.8,286046999.5,N
1651082355.6,286046999.3,N
1651082375.5,286046998.9,N
1651082395.3,286046998.3,N
